sat.trackr.live / text

‹ back to catalog

STARLINK-5279

NORAD 54165 · 2022-141J

PAYLOAD ACTIVE UNKNOWN

§ Identity

Operator
Country
US
Launch date
2022-10-28
Launch site
AFWTR
Launch vehicle
Mass (kg)
RCS (m²)

Purposes: comms

External: N2YO · Heavens-Above · Gunter

§ Orbital elements

Epoch: 2026-05-25T02:30:42.828768Z

Period
95.44 min
Inclination
53.2129°
Eccentricity
0.0001458
Mean motion
15.08858015 rev/d
Perigee alt
538.7 km
Apogee alt
540.7 km
Semi-major
6,917.8 km
B*
-2.8774e-4
RAAN
31.0548°
Arg perigee
89.8480°
Mean anomaly
270.2679°
Rev number
19,725

§ Raw data

STARLINK-52791 54165U 22141J   26145.10466237 -.00004867  00000+0 -28774-3 0  99952 54165  53.2129  31.0548 0001458  89.8480 270.2679 15.08858015197259

JSON: /api/v1/satellites/54165 · /tle

For live sub-satellite position, see the globe view (requires WebGL).

§ Visibility from observer

Set your observer location to see the next 7 days of passes ≥ 10°. The values pass through the URL so the page stays shareable.

No JS? Fill the form by hand. The geolocation button needs JavaScript.